This is the latest recevied weather packets stored in our database for station/object VK3AGD-9. If no packets are shown the sender has not sent any weather packets the latest 10 day(s).
| Time | Temp. | Humidity | Pressure | Rain* | Wind** | Luminosity | Snow |
|---|---|---|---|---|---|---|---|
| 1777779985 | 17.22° C | 92% | - | 0 mm | - | - | - |
| 1777779027 | 17.22° C | 91% | - | 0 mm | - | - | - |
| 1777778162 | 17.22° C | 93% | - | 0 mm | - | - | - |
| 1777777298 | 17.22° C | 94% | - | 0 mm | - | - | - |
| 1777776337 | 16.67° C | 96% | - | 0 mm | - | - | - |
| 1777775474 | 16.67° C | 97% | - | 0 mm | - | - | - |
| 1777774610 | 16.67° C | 97% | - | 1.02 mm | - | - | - |
| 1777773650 | 16.11° C | 97% | - | 1.52 mm | - | - | - |
| 1777772786 | 16.11° C | 98% | - | 1.02 mm | - | - | - |
| 1777771826 | 16.67° C | 98% | - | 0.76 mm | - | - | - |
| 1777770962 | 16.67° C | 98% | - | 0.51 mm | - | - | - |
| 1777770097 | 16.67° C | 97% | - | 0 mm | - | - | - |
| 1777769138 | 16.67° C | 95% | - | 0 mm | - | - | - |
| 1777768273 | 17.78° C | 88% | - | 0 mm | - | - | - |
| 1777767409 | 18.89° C | 81% | - | 0 mm | - | - | - |
| 1777766450 | 18.89° C | 81% | - | 0 mm | - | - | - |
| 1777765586 | 19.44° C | 78% | - | 0 mm | - | - | - |
| 1777764626 | 19.44° C | 78% | - | 0 mm | - | - | - |
| 1777763762 | 19.44° C | 78% | - | 0 mm | - | - | - |
| 1777762898 | 19.44° C | 77% | - | 0 mm | - | - | - |
| 1777761937 | 19.44° C | 78% | - | 0 mm | - | - | - |
| 1777761074 | 18.89° C | 80% | - | 0 mm | - | - | - |
| 1777760210 | 18.33° C | 81% | - | 0 mm | - | - | - |
| 1777759250 | 18.33° C | 82% | - | 0 mm | - | - | - |
| 1777758386 | 18.33° C | 83% | - | 0 mm | - | - | - |
* Rain latest hour (hover to see other rain measurements)
** Current wind speed in m/s (hover to see current wind gust speed)